Location: Hamayl? Da??
(36.7028°N, 30.1716°E)
Time: 07:48:23
(UTC+00:00)

Lacrosse 5 - Pass Details

Date: 04 August 2024
Orbit: 714 x 724 km, 57.0° (Epoch: 09 March)

Event Time Altitude Azimuth Distance (km) Brightness Sun altitude
Rises 20:50:00 0° 299° (WNW) 3,118 5.8 -33.5°
Reaches altitude 10° 20:53:21 10° 276° (W) 2,195 4.6 -33.7°
Enters shadow 20:53:43 11° 273° (W) 2,122 4.5 -33.8°
